1495983600.19,37839,17.88,74642.0,15.31,-24.97,-17.83,0,*48
1495983601.44,37840,17.88,74640.5,15.33,-25.55,-18.49,0,*42
1495983602.7,37841,17.88,74642.3,15.33,-24.25,-17.31,0,*45
1495983603.97,37842,17.88,74640.3,15.37,-23.95,-17.25,0,*4B
1495983605.23,37843,17.88,74642.5,15.39,-23.99,-17.59,0,*43
1495983606.46,37844,17.88,74642.8,15.39,-23.75,-17.41,0,*4F
1495983607.72,37845,17.81,74636.8,15.45,-22.77,-16.75,0,*40
1495983608.95,37846,17.88,74642.8,15.45,-22.27,-16.75,0,*46
1495983610.15,37847,17.88,74640.0,15.49,-23.89,-18.49,0,*4F
1495983611.36,37848,17.88,74642.8,15.49,-24.05,-18.73,0,*4A
1495983612.61,37849,17.88,74642.3,15.51,-22.41,-17.59,0,*43
1495983613.84,37850,17.88,74642.8,15.53,-22.31,-17.69,0,*4D
1495983615.08,37851,17.88,74642.8,15.53,-22.31,-17.87,0,*4C
1495983616.31,37852,17.88,74640.5,15.57,-22.47,-18.45,0,*4B
1495983617.52,37853,17.88,74640.3,15.57,-24.05,-20.25,0,*47
1495983618.78,37854,17.88,74642.3,15.59,-23.49,-19.95,0,*40
1495983620.02,37855,17.88,74642.5,15.57,-22.57,-19.31,0,*4F
1495983621.22,37856,17.88,74642.8,15.61,-22.37,-19.37,0,*49
1495983622.45,37857,17.88,74642.5,15.63,-22.57,-19.91,0,*40
1495983623.65,37858,17.88,74642.8,15.61,-22.37,-19.99,0,*43
1495983624.88,37859,17.88,74640.8,15.63,-21.77,-19.37,0,*43
1495983626.12,37860,17.88,74642.8,15.63,-21.77,-19.91,0,*45
1495983627.37,37861,17.88,74638.8,15.67,-24.87,-23.09,0,*42
1495983628.63,37862,17.88,74640.3,15.67,-24.25,-22.41,0,*44
1495983629.89,37863,17.88,74642.3,15.67,-22.53,-20.79,0,*4B
1495983631.09,37864,17.88,74644.0,15.69,-22.41,-20.73,0,*4B
1495983632.34,37865,17.88,74642.0,15.71,-22.07,-20.53,0,*43
1495983633.59,37866,17.88,74642.5,15.71,-22.21,-20.73,0,*46
1495983634.82,37867,17.88,74642.8,15.73,-22.03,-20.53,0,*47
1495983636.05,37868,17.88,74642.5,15.77,-21.83,-20.39,0,*4B
1495983637.28,37869,17.88,74640.3,15.77,-22.21,-20.89,0,*4A
1495983638.5,37870,17.88,74642.3,15.81,-22.07,-20.69,0,*41
1495983639.7,37871,17.88,74640.3,15.83,-22.07,-20.63,0,*48
1495983640.95,37872,17.88,74642.0,15.83,-22.31,-20.99,0,*4B
1495983642.2,37873,17.88,74640.3,15.89,-22.77,-21.47,0,*40
1495983643.46,37874,17.88,74644.0,15.89,-23.43,-21.97,0,*4C
1495983644.66,37875,17.88,74642.5,15.91,-24.05,-22.83,0,*47
1495983645.9,37876,17.88,74642.5,15.91,-25.29,-23.95,0,*4D
1495983647.18,37877,17.88,74644.3,15.89,-26.97,-25.55,0,*49
1495983648.45,37878,17.88,74640.8,15.89,-26.17,-24.67,0,*4E
1495983649.69,37879,17.88,74642.3,15.91,-25.29,-23.69,0,*41
1495983650.91,37880,17.88,74646.8,15.93,-24.61,-22.87,0,*49
1495983652.14,37881,17.88,74642.0,15.91,-24.67,-22.97,0,*4D
1495983653.4,37882,17.88,74640.3,15.93,-25.29,-23.65,0,*4B
1495983654.66,37883,17.88,74642.5,15.93,-27.35,-25.45,0,*41
1495983655.86,37884,17.88,74642.8,15.91,-26.07,-24.05,0,*41
1495983657.08,37885,17.88,74640.0,15.91,-25.61,-23.65,0,*42
1495983658.34,37886,17.88,74640.0,15.93,-25.29,-23.23,0,*4D
1495983659.59,37887,17.88,74642.0,15.93,-26.65,-24.67,0,*40
1495983660.86,37888,17.88,74646.3,15.93,-27.99,-25.97,0,*43
1495983662.1,37889,17.88,74644.0,15.93,-29.13,-27.07,0,*45
1495983663.35,37890,17.88,74644.5,15.89,-30.11,-27.99,0,*4B
1495983664.58,37891,17.88,74648.0,15.89,-29.61,-27.51,0,*41
1495983665.82,37892,17.88,74646.0,15.83,-30.95,-28.79,0,*4E
1495983667.09,37893,17.88,74642.8,15.81,-30.05,-28.09,0,*43
1495983668.37,37894,17.88,74646.0,15.79,-29.17,-26.97,0,*41
1495983669.59,37895,17.88,74644.0,15.75,-29.79,-27.51,0,*4F
1495983670.84,37896,17.88,74640.5,15.75,-29.23,-26.93,0,*4C
1495983672.07,37897,17.88,74644.3,15.73,-29.29,-27.13,0,*48
1495983673.26,37898,17.88,74644.8,15.73,-28.69,-26.65,0,*42
1495983674.52,37899,17.88,74642.3,15.71,-28.31,-26.29,0,*44
1495983675.74,37900,17.88,74642.8,15.73,-28.79,-26.65,0,*43
1495983677.02,37901,17.88,74642.0,15.71,-28.21,-26.17,0,*48
1495983678.27,37902,17.88,74646.3,15.73,-29.17,-27.45,0,*4B
1495983679.54,37903,17.88,74642.5,15.71,-27.99,-26.13,0,*42
1495983680.8,37904,17.88,74642.8,15.71,-28.37,-26.71,0,*4A
1495983682.05,37905,17.88,74644.0,15.71,-29.23,-27.83,0,*43
1495983683.33,37906,17.88,74642.3,15.71,-29.73,-28.21,0,*42
1495983684.56,37907,17.88,74642.3,15.67,-29.83,-28.53,0,*4E
1495983685.78,37908,17.88,74644.3,15.67,-30.33,-29.07,0,*42
1495983687.02,37909,17.88,74640.0,15.61,-30.55,-29.29,0,*49
1495983688.24,37910,17.88,74640.5,15.61,-30.73,-29.61,0,*49
1495983689.46,37911,17.88,74642.5,15.57,-30.17,-29.07,0,*4F
1495983690.66,37912,17.88,74642.5,15.57,-30.11,-28.97,0,*42
1495983691.9,37913,17.88,74646.0,15.57,-29.57,-28.43,0,*40
1495983693.15,37914,17.88,74642.0,15.55,-28.43,-27.55,0,*49
1495983694.4,37915,17.88,74642.3,15.55,-28.59,-27.51,0,*47
1495983695.66,37916,17.88,74638.5,15.55,-29.61,-28.59,0,*49
1495983696.89,37917,17.88,74640.0,15.53,-29.67,-28.91,0,*4C
1495983698.1,37918,17.88,74636.5,15.53,-28.97,-27.93,0,*40
1495983699.35,37919,17.88,74642.0,15.53,-28.09,-27.23,0,*4D
1495983700.6,37920,17.88,74638.3,15.51,-28.47,-27.67,0,*4F
1495983701.86,37921,17.88,74640.0,15.49,-27.61,-26.81,0,*45
1495983703.1,37922,17.88,74638.3,15.51,-28.37,-27.67,0,*4A
1495983704.35,37923,17.88,74636.0,15.51,-28.47,-27.77,0,*4D
1495983705.6,37924,17.88,74642.8,15.51,-28.31,-27.61,0,*4C
1495983706.89,37925,17.88,74642.5,15.51,-28.79,-28.21,0,*4A
1495983708.12,37926,17.88,74638.8,15.49,-28.85,-28.21,0,*43
1495983709.36,37927,17.88,74638.5,15.49,-29.35,-28.85,0,*46
1495983710.6,37928,17.88,74640.3,15.51,-28.85,-28.31,0,*45
1495983711.85,37929,17.88,74642.3,15.49,-28.47,-27.83,0,*45
1495983713.08,37930,17.88,74642.8,15.51,-28.53,-27.93,0,*40
1495983714.32,37931,17.88,74642.0,15.47,-28.25,-27.67,0,*4C
1495983715.52,37932,17.88,74642.0,15.47,-28.85,-28.37,0,*4F
1495983716.76,37933,17.88,74646.0,15.47,-28.21,-27.67,0,*4A
1495983718.01,37934,17.88,74642.8,15.47,-29.39,-29.01,0,*4B
1495983719.24,37935,17.88,74644.8,15.45,-28.53,-27.89,0,*4B
1495983720.49,37936,17.88,74642.5,15.45,-28.69,-28.43,0,*48
1495983721.75,37937,17.88,74644.0,15.47,-28.91,-28.43,0,*4C
1495983722.97,37938,17.88,74642.8,15.43,-29.07,-28.75,0,*4C
1495983724.22,37939,17.88,74642.8,15.43,-29.51,-29.13,0,*4F
1495983725.49,37940,17.88,74642.0,15.43,-29.51,-29.35,0,*45
1495983726.72,37941,17.88,74646.0,15.43,-29.07,-28.59,0,*4C
1495983727.92,37942,17.88,74644.0,15.39,-28.37,-27.77,0,*43
1495983729.12,37943,17.88,74642.0,15.43,-28.15,-27.89,0,*4E
1495983730.34,37944,17.88,74640.5,15.39,-29.79,-29.29,0,*4B
1495983731.54,37945,17.88,74640.8,15.39,-29.57,-29.23,0,*4C
1495983732.74,37946,17.88,74642.3,15.39,-29.23,-28.85,0,*41
1495983733.96,37947,17.88,74640.0,15.37,-30.45,-30.23,0,*43
1495983735.19,37948,17.88,74642.0,15.39,-28.79,-28.53,0,*4A
1495983736.4,37949,17.88,74638.5,15.35,-29.95,-29.57,0,*41
1495983737.6,37950,17.88,74642.0,15.35,-30.33,-29.95,0,*43
1495983738.83,37951,17.88,74642.3,15.31,-30.55,-30.27,0,*47
1495983740.02,37952,17.88,74642.5,15.31,-30.33,-30.11,0,*41
1495983741.26,37953,17.88,74640.8,15.29,-28.53,-28.15,0,*4B
1495983742.52,37954,17.88,74644.0,15.27,-28.59,-28.05,0,*49
1495983743.78,37955,17.88,74640.8,15.27,-29.35,-29.01,0,*46
1495983745.01,37956,17.88,74638.8,15.27,-29.01,-28.69,0,*4D
1495983746.26,37957,17.88,74642.3,15.29,-29.13,-28.97,0,*40
1495983747.46,37958,17.94,74644.0,15.27,-30.11,-29.79,0,*4A
1495983748.67,37959,17.88,74638.5,15.27,-32.51,-32.51,0,*4D
1495983749.93,37960,17.88,74640.5,15.23,-32.29,-32.07,0,*4F
1495983751.18,37961,17.88,74642.8,15.17,-30.23,-29.89,0,*4D
1495983752.41,37962,17.88,74642.3,15.17,-30.23,-29.95,0,*43
1495983753.66,37963,17.88,74638.3,15.17,-30.23,-29.89,0,*4F
1495983754.91,37964,17.88,74642.5,15.15,-30.23,-30.05,0,*46
1495983756.11,37965,17.88,74642.0,15.13,-30.11,-29.83,0,*46
1495983757.34,37966,17.94,74644.5,15.13,-29.67,-29.39,0,*4D
1495983758.56,37967,17.94,74644.5,15.13,-29.61,-29.39,0,*4A
1495983759.82,37968,17.88,74642.3,15.15,-29.35,-29.07,0,*4F
1495983761.03,37969,17.88,74642.0,15.13,-29.83,-29.67,0,*43
1495983762.26,37970,17.88,74642.3,15.11,-29.83,-29.67,0,*49
1495983763.51,37971,17.94,74646.0,15.11,-30.01,-29.95,0,*47
1495983764.74,37972,17.88,74640.0,15.11,-29.95,-29.67,0,*4C
1495983766.0,37973,17.88,74640.0,15.09,-30.17,-29.89,0,*46
1495983767.26,37974,17.88,74642.0,15.07,-30.73,-30.45,0,*45
1495983768.51,37975,17.88,74640.0,15.07,-30.27,-30.05,0,*41
1495983769.72,37976,17.88,74640.0,15.05,-30.67,-30.33,0,*41
1495983771.01,37977,17.88,74642.3,15.03,-30.17,-30.05,0,*44
1495983772.24,37978,17.94,74642.3,15.01,-31.05,-30.73,0,*4A
1495983773.47,37979,17.88,74642.0,15.01,-30.33,-30.17,0,*4D
1495983774.71,37980,17.88,74642.8,15.01,-28.63,-28.15,0,*4C
1495983775.94,37981,17.88,74642.8,15.03,-28.53,-28.37,0,*4C
1495983777.17,37982,17.88,74640.8,15.01,-29.01,-28.97,0,*41
1495983778.4,37983,17.88,74640.0,15.01,-29.17,-28.97,0,*47
1495983779.65,37984,17.94,74640.8,15.01,-29.01,-28.79,0,*47
1495983780.91,37985,17.94,74644.3,15.01,-28.59,-28.09,0,*4D
1495983782.17,37986,17.94,74640.3,15.03,-28.53,-28.25,0,*48
1495983783.44,37987,17.88,74642.5,15.01,-28.25,-27.99,0,*42
1495983784.64,37988,17.94,74642.0,15.01,-27.55,-27.13,0,*47
1495983785.87,37989,17.94,74642.3,15.03,-27.03,-26.61,0,*43
1495983787.1,37990,17.94,74640.8,15.03,-26.87,-26.49,0,*4C
1495983788.35,37991,17.94,74640.3,15.07,-26.97,-26.49,0,*48
1495983789.62,37992,17.94,74640.8,15.07,-27.83,-27.45,0,*42
1495983790.88,37993,17.94,74640.8,15.07,-27.67,-27.19,0,*40
1495983792.12,37994,17.94,74642.5,15.09,-26.65,-26.29,0,*48
1495983793.38,37995,17.88,74638.5,15.09,-26.77,-26.29,0,*4A
1495983794.63,37996,17.88,74638.8,15.11,-26.55,-26.07,0,*4C
1495983795.87,37997,17.94,74640.0,15.11,-26.87,-26.55,0,*45
1495983797.13,37998,17.94,74640.8,15.15,-26.39,-25.97,0,*46
1495983798.41,37999,17.94,74640.0,15.15,-26.71,-26.29,0,*4D
1495983799.66,38000,17.94,74642.8,15.17,-26.87,-26.55,0,*4B
1495983800.89,38001,17.94,74640.3,15.17,-27.55,-27.13,0,*47
1495983802.12,38002,17.94,74640.5,15.17,-27.51,-27.03,0,*41
1495983803.37,38003,17.94,74640.5,15.17,-27.35,-26.87,0,*4F
1495983804.63,38004,17.94,74646.3,15.21,-27.35,-27.07,0,*44
1495983805.92,38005,17.94,74642.8,15.21,-27.61,-27.39,0,*49
1495983807.2,38006,17.94,74640.8,15.21,-27.45,-26.93,0,*4D
1495983808.46,38007,17.94,74640.0,15.21,-27.61,-27.13,0,*43
1495983809.69,38008,17.94,74640.3,15.21,-27.51,-27.13,0,*4F
1495983810.95,38009,17.94,74640.8,15.21,-28.31,-27.99,0,*45
1495983812.21,38010,17.94,74642.5,15.21,-27.51,-27.23,0,*45
1495983813.47,38011,17.94,74642.0,15.21,-27.77,-27.35,0,*47
1495983814.75,38012,17.94,74640.5,15.21,-28.25,-27.83,0,*41
1495983816.04,38013,17.94,74644.0,15.21,-27.99,-27.61,0,*44
1495983817.32,38014,17.94,74640.8,15.21,-27.99,-27.61,0,*43
1495983818.6,38015,17.94,74642.5,15.21,-27.99,-27.61,0,*42
1495983819.87,38016,17.94,74642.8,15.21,-26.97,-26.65,0,*4B
1495983821.13,38017,17.94,74642.3,15.21,-26.77,-26.23,0,*46
1495983822.33,38018,17.94,74642.3,15.23,-26.23,-25.87,0,*47
1495983823.59,38019,17.94,74642.0,15.23,-26.93,-26.29,0,*4A
1495983824.85,38020,17.94,74640.5,15.27,-26.13,-25.71,0,*42
1495983826.08,38021,17.94,74642.5,15.27,-27.39,-27.13,0,*4C
1495983827.34,38022,17.94,74644.3,15.27,-26.33,-25.81,0,*4D
1495983828.6,38023,17.94,74640.0,15.29,-26.61,-26.33,0,*4F
1495983829.83,38024,17.94,74644.0,15.29,-27.07,-26.65,0,*4A
1495983831.11,38025,17.94,74640.3,15.29,-26.77,-26.29,0,*45
1495983832.34,38026,17.94,74644.3,15.29,-27.07,-26.65,0,*48
1495983833.57,38027,17.94,74642.5,15.31,-26.93,-26.45,0,*4E
1495983834.82,38028,17.94,74640.0,15.31,-26.71,-26.13,0,*4E
1495983836.05,38029,17.94,74640.5,15.33,-26.61,-26.07,0,*49
1495983837.33,38030,17.94,74644.8,15.33,-26.71,-26.13,0,*45
1495983838.56,38031,17.94,74644.5,15.33,-26.61,-26.07,0,*40
1495983839.77,38032,17.94,74642.5,15.35,-26.39,-26.03,0,*4C
1495983841.02,38033,17.94,74642.5,15.37,-26.81,-26.49,0,*42
1495983842.25,38034,17.94,74642.3,15.37,-27.51,-27.07,0,*42
1495983843.48,38035,17.94,74640.8,15.37,-26.49,-26.07,0,*4A
1495983844.71,38036,17.94,74642.0,15.37,-27.51,-27.03,0,*44
1495983845.93,38037,17.94,74642.8,15.37,-27.03,-26.65,0,*43
1495983847.17,38038,17.94,74642.0,15.39,-27.19,-26.77,0,*4A
1495983848.41,38039,17.94,74642.3,15.39,-28.85,-28.63,0,*4A
1495983849.63,38040,17.94,74642.5,15.39,-27.19,-26.65,0,*46
1495983850.88,38041,17.94,74642.0,15.39,-26.17,-25.75,0,*4A
1495983852.11,38042,17.94,74642.0,15.39,-26.45,-26.13,0,*4D
1495983853.34,38043,17.94,74640.8,15.39,-26.61,-26.13,0,*4A
1495983854.59,38044,17.94,74638.8,15.43,-26.71,-26.29,0,*48
1495983855.82,38045,17.94,74640.3,15.43,-27.07,-26.77,0,*42
1495983857.05,38046,17.94,74642.3,15.43,-27.93,-27.45,0,*4C
1495983858.25,38047,17.94,74644.5,15.39,-27.55,-27.13,0,*49
1495983859.49,38048,17.94,74642.8,15.39,-27.35,-26.93,0,*49
1495983860.72,38049,17.94,74640.3,15.43,-26.23,-25.75,0,*48
1495983861.95,38050,17.94,74640.0,15.43,-26.45,-26.13,0,*43
1495983863.2,38051,17.94,74640.0,15.45,-27.03,-26.71,0,*43
1495983864.45,38052,17.94,74640.3,15.45,-27.51,-27.19,0,*48
1495983865.7,38053,17.94,74642.8,15.45,-28.09,-27.89,0,*42
1495983866.93,38054,17.94,74642.8,15.43,-27.71,-27.39,0,*48
1495983868.13,38055,17.94,74640.5,15.43,-27.71,-27.29,0,*48
1495983869.34,38056,17.94,74640.5,15.39,-27.93,-27.67,0,*40
1495983870.59,38057,17.94,74644.3,15.43,-27.39,-26.97,0,*42
1495983871.83,38058,17.94,74642.3,15.43,-27.61,-27.29,0,*44
1495983873.04,38059,17.94,74642.5,15.43,-28.31,-27.89,0,*45
1495983874.29,38060,17.94,74646.8,15.39,-27.45,-27.19,0,*47
1495983875.54,38061,17.94,74642.8,15.43,-26.71,-26.29,0,*4F
1495983876.77,38062,17.94,74640.3,15.43,-26.55,-26.07,0,*46
1495983877.97,38063,17.94,74640.0,15.43,-26.39,-26.07,0,*4D
1495983879.25,38064,17.94,74642.3,15.45,-27.39,-27.19,0,*43
1495983880.48,38065,17.94,74642.0,15.47,-28.05,-27.71,0,*4E
1495983881.7,38066,17.94,74642.0,15.47,-27.35,-27.03,0,*44
1495983882.95,38067,17.94,74644.5,15.45,-27.35,-27.03,0,*47
1495983884.2,38068,17.94,74644.5,15.47,-27.23,-26.93,0,*45
1495983885.46,38069,17.94,74644.0,15.47,-26.81,-26.55,0,*47
1495983886.69,38070,17.94,74642.8,15.47,-27.23,-27.03,0,*44
1495983887.92,38071,17.94,74642.3,15.47,-26.71,-26.39,0,*4B
1495983889.12,38072,17.94,74642.8,15.47,-27.03,-26.65,0,*45
1495983890.38,38073,17.94,74640.5,15.51,-26.61,-26.33,0,*45
1495983891.64,38074,17.94,74642.5,15.51,-27.77,-27.61,0,*42
1495983892.93,38075,17.94,74644.0,15.51,-29.51,-29.35,0,*46
1495983894.19,38076,17.94,74646.5,15.49,-28.21,-27.99,0,*42
1495983895.39,38077,17.94,74644.0,15.47,-27.07,-26.87,0,*48
1495983896.59,38078,17.94,74640.8,15.47,-26.49,-26.23,0,*42
1495983897.8,38079,17.94,74642.5,15.49,-26.65,-26.49,0,*4F
1495983899.06,38080,17.94,74640.8,15.51,-26.65,-26.33,0,*4D
1495983900.33,38081,17.94,74646.5,15.51,-26.29,-26.03,0,*47
1495983901.59,38082,17.94,74644.0,15.51,-26.65,-26.33,0,*4F
1495983902.85,38083,17.94,74644.0,15.55,-26.17,-25.91,0,*44
1495983904.11,38084,17.94,74642.8,15.55,-26.33,-26.07,0,*49
1495983905.36,38085,17.94,74642.0,15.55,-26.77,-26.49,0,*42
1495983906.59,38086,17.94,74644.5,15.55,-27.03,-26.87,0,*41
1495983907.85,38087,17.94,74640.0,15.55,-27.23,-27.07,0,*4B
1495983909.07,38088,17.94,74642.5,15.57,-27.19,-27.07,0,*4F
1495983910.32,38089,17.94,74644.0,15.55,-27.83,-27.55,0,*48
1495983911.6,38090,17.94,74640.3,15.55,-28.05,-27.83,0,*4A
1495983912.85,38091,17.94,74640.8,15.55,-27.83,-27.51,0,*45
1495983914.11,38092,17.94,74642.5,15.55,-27.23,-26.87,0,*46
1495983915.36,38093,17.94,74642.3,15.55,-26.93,-26.49,0,*4F
1495983916.61,38094,17.94,74644.5,15.55,-27.83,-27.51,0,*40
1495983917.86,38095,17.94,74644.5,15.55,-27.51,-27.19,0,*42
1495983919.12,38096,17.94,74646.0,15.55,-27.67,-27.39,0,*46
1495983920.35,38097,17.94,74648.0,15.55,-30.27,-30.27,0,*4C
1495983921.6,38098,17.94,74644.3,15.53,-30.39,-30.17,0,*49
1495983922.89,38099,17.94,74640.0,15.51,-30.73,-30.73,0,*46
1495983924.15,38100,17.94,74644.3,15.49,-30.73,-30.73,0,*4E
1495983925.38,38101,17.94,74640.3,15.47,-31.39,-31.33,0,*4B
1495983926.6,38102,17.94,74644.0,15.47,-32.01,-31.73,0,*44
1495983927.83,38103,18.0,74646.0,15.39,-31.05,-30.89,0,*4F
1495983929.08,38104,17.94,74644.8,15.39,-30.77,-30.55,0,*4D
1495983930.34,38105,17.94,74642.8,15.35,-28.59,-28.43,0,*4B
1495983931.62,38106,17.94,74640.5,15.37,-28.21,-27.83,0,*46
1495983932.86,38107,17.94,74646.5,15.37,-28.15,-27.83,0,*40
1495983934.12,38108,17.94,74642.3,15.37,-28.53,-28.21,0,*4A
1495983935.36,38109,17.94,74642.0,15.35,-29.17,-28.85,0,*46
1495983936.57,38110,17.94,74640.0,15.35,-28.53,-28.37,0,*46
1495983937.82,38111,17.94,74638.5,15.37,-28.69,-28.43,0,*4F
1495983939.05,38112,17.94,74642.5,15.37,-29.57,-29.45,0,*47
1495983940.28,38113,17.94,74640.3,15.35,-29.45,-29.39,0,*4C
1495983941.54,38114,17.94,74640.8,15.33,-29.67,-29.51,0,*43
1495983942.82,38115,17.94,74640.8,15.33,-28.63,-28.25,0,*45
1495983944.05,38116,17.94,74642.3,15.33,-27.55,-27.29,0,*4F
1495983945.33,38117,17.94,74638.0,15.37,-27.23,-26.97,0,*4F
1495983946.55,38118,17.94,74638.0,15.37,-27.89,-27.55,0,*4F
1495983947.78,38119,17.94,74638.0,15.35,-27.71,-27.39,0,*41
1495983949.04,38120,17.94,74642.5,15.37,-27.55,-27.35,0,*43
1495983950.29,38121,17.94,74642.8,15.37,-28.53,-28.43,0,*45
1495983951.51,38122,18.0,74644.8,15.35,-28.69,-28.75,0,*48
1495983952.74,38123,17.94,74642.0,15.37,-29.23,-29.23,0,*46
1495983953.97,38124,17.94,74642.8,15.37,-29.57,-29.45,0,*42
1495983955.17,38125,17.94,74640.3,15.35,-30.33,-30.27,0,*47
1495983956.43,38126,17.94,74640.3,15.31,-31.57,-31.39,0,*4D
1495983957.63,38127,17.94,74640.3,15.31,-29.67,-29.61,0,*42
1495983958.9,38128,17.94,74642.0,15.27,-29.89,-29.89,0,*4C
1495983960.13,38129,17.94,74642.0,15.27,-29.89,-29.95,0,*40
1495983961.36,38130,17.94,74638.5,15.27,-30.45,-30.39,0,*4E
1495983962.6,38131,17.94,74642.8,15.23,-30.83,-30.73,0,*4F
1495983963.86,38132,17.94,74644.0,15.25,-30.33,-30.17,0,*43
1495983965.15,38133,17.94,74644.0,15.21,-30.89,-30.73,0,*45
1495983966.39,38134,17.94,74642.8,15.17,-30.55,-30.27,0,*47
1495983967.66,38135,17.94,74640.0,15.17,-30.39,-30.05,0,*4C
1495983968.89,38136,17.94,74642.0,15.15,-30.11,-29.95,0,*46
1495983970.18,38137,17.94,74642.3,15.15,-30.77,-30.61,0,*44
1495983971.41,38138,17.94,74640.8,15.13,-30.83,-30.61,0,*46
1495983972.64,38139,17.94,74640.8,15.13,-30.01,-29.83,0,*49
1495983973.88,38140,18.0,74640.5,15.11,-30.01,-29.79,0,*40
1495983975.09,38141,17.94,74640.0,15.13,-29.95,-29.83,0,*43
1495983976.35,38142,17.94,74636.5,15.09,-30.95,-30.89,0,*41
1495983977.63,38143,17.94,74636.0,15.11,-29.39,-29.13,0,*4C
1495983978.89,38144,17.94,74640.5,15.07,-29.35,-28.85,0,*4E
1495983980.17,38145,17.94,74640.8,15.11,-28.43,-28.09,0,*4C
1495983981.37,38146,17.94,74638.3,15.09,-27.77,-27.51,0,*4C
1495983982.65,38147,17.94,74640.8,15.11,-27.45,-27.19,0,*49
1495983983.93,38148,17.94,74636.0,15.11,-28.21,-28.05,0,*49
1495983985.19,38149,17.94,74638.5,15.11,-29.45,-29.39,0,*45
1495983986.45,38150,17.94,74638.8,15.09,-30.89,-30.77,0,*4E
1495983987.71,38151,17.94,74638.3,15.09,-31.23,-31.23,0,*4E
1495983988.97,38152,18.0,74640.3,15.09,-31.11,-30.89,0,*4D
1495983990.2,38153,17.94,74636.8,15.05,-30.01,-29.79,0,*47
1495983991.42,38154,17.94,74640.0,15.05,-30.01,-29.61,0,*49
1495983992.65,38155,17.94,74638.5,15.05,-29.07,-28.75,0,*42
1495983993.87,38156,17.94,74638.8,15.05,-28.09,-27.77,0,*43
1495983995.11,38157,17.94,74638.8,15.05,-27.61,-27.51,0,*47
1495983996.35,38158,18.0,74642.0,15.07,-27.29,-27.03,0,*41
1495983997.61,38159,17.94,74638.0,15.07,-26.97,-26.65,0,*45
1495983998.87,38160,17.94,74638.3,15.09,-27.61,-27.61,0,*4C
1495984000.15,38161,17.94,74638.3,15.11,-28.09,-28.09,0,*44
1495984001.4,38162,17.94,74636.0,15.11,-27.77,-27.61,0,*40
1495984002.63,38163,18.0,74640.3,15.09,-28.69,-28.59,0,*4C
1495984003.9,38164,18.0,74642.0,15.11,-28.75,-28.75,0,*41
1495984005.13,38165,17.94,74636.8,15.11,-29.67,-29.61,0,*46
1495984006.41,38166,18.0,74640.5,15.11,-28.79,-28.75,0,*4F
1495984007.63,38167,18.0,74642.8,15.09,-28.97,-28.79,0,*4B
1495984008.87,38168,18.0,74640.0,15.09,-29.29,-29.17,0,*49
1495984010.12,38169,18.0,74638.3,15.09,-29.01,-29.13,0,*46
1495984011.35,38170,17.94,74640.5,15.09,-30.23,-30.17,0,*4A
1495984012.6,38171,17.94,74636.5,15.09,-30.01,-29.89,0,*44
1495984013.85,38172,17.94,74638.0,15.07,-29.17,-29.23,0,*46
1495984015.06,38173,17.94,74638.0,15.05,-29.83,-29.83,0,*42
1495984016.27,38174,17.94,74636.0,15.05,-29.95,-30.11,0,*41
1495984017.47,38175,18.0,74638.8,15.05,-30.45,-30.45,0,*44
1495984018.7,38176,17.94,74638.3,15.01,-29.07,-28.91,0,*4D
1495984019.93,38177,17.94,74638.0,15.01,-29.61,-29.51,0,*41
1495984021.16,38178,17.94,74638.3,15.01,-30.89,-31.05,0,*48
1495984022.43,38179,18.0,74640.8,15.01,-31.11,-31.11,0,*4C
1495984023.68,38180,17.94,74636.5,15.01,-30.17,-30.05,0,*49
1495984024.93,38181,18.0,74642.8,14.99,-30.51,-30.33,0,*4F
1495984026.19,38182,18.0,74640.5,14.95,-29.73,-29.67,0,*41
1495984027.4,38183,18.0,74642.0,14.93,-29.61,-29.45,0,*45
1495984028.61,38184,18.0,74640.3,14.93,-29.61,-29.57,0,*41
1495984029.86,38185,17.94,74638.0,14.91,-30.51,-30.27,0,*46
1495984031.12,38186,18.0,74642.8,14.91,-30.95,-30.67,0,*49
1495984032.38,38187,18.0,74640.3,14.91,-30.27,-30.01,0,*41
1495984033.61,38188,18.0,74642.0,14.91,-30.11,-29.95,0,*4E
1495984034.84,38189,18.0,74638.5,14.89,-31.57,-31.67,0,*41
1495984036.06,38190,18.0,74640.8,14.87,-32.35,-32.35,0,*44
1495984037.29,38191,18.0,74638.5,14.85,-32.01,-31.85,0,*48
1495984038.52,38192,17.94,74638.3,14.83,-32.39,-32.35,0,*4E
1495984039.75,38193,18.0,74640.3,14.79,-32.39,-32.23,0,*4D
1495984041.02,38194,17.94,74636.3,14.79,-31.91,-31.73,0,*4D
1495984042.31,38195,18.0,74642.8,14.75,-31.11,-30.77,0,*4D
1495984043.53,38196,18.0,74640.5,14.75,-30.45,-30.27,0,*4B
1495984044.76,38197,18.0,74640.8,14.77,-30.55,-30.45,0,*4D
1495984045.96,38198,18.0,74638.5,14.77,-30.45,-30.27,0,*47
1495984047.24,38199,18.0,74642.8,14.75,-29.89,-29.73,0,*45
1495984048.49,38200,18.0,74638.8,14.75,-30.23,-29.89,0,*4B
1495984049.72,38201,18.0,74638.0,14.71,-29.83,-29.61,0,*4A
1495984050.95,38202,18.0,74638.0,14.75,-29.57,-29.23,0,*42
1495984052.2,38203,18.0,74638.8,14.75,-29.57,-29.39,0,*48
1495984053.46,38204,18.0,74638.5,14.75,-28.85,-28.59,0,*46
1495984054.7,38205,18.0,74640.8,14.69,-28.05,-27.71,0,*47
1495984055.95,38206,18.0,74642.5,14.75,-28.85,-28.59,0,*44
1495984057.21,38207,18.0,74642.3,14.75,-29.73,-29.45,0,*41
1495984058.46,38208,18.0,74642.8,14.75,-29.57,-29.39,0,*43
1495984059.74,38209,18.0,74642.0,14.75,-28.91,-28.43,0,*45
1495984060.97,38210,18.0,74642.0,14.77,-29.67,-29.39,0,*4B
1495984062.19,38211,18.0,74640.5,14.75,-30.45,-30.27,0,*47
1495984063.44,38212,18.0,74640.8,14.71,-30.17,-29.79,0,*44
1495984064.72,38213,18.0,74642.3,14.75,-29.17,-28.91,0,*4E
1495984065.98,38214,18.0,74640.0,14.75,-30.27,-30.05,0,*46
1495984067.2,38215,18.0,74642.3,14.71,-30.11,-29.79,0,*45
1495984068.41,38216,18.0,74640.3,14.69,-29.83,-29.67,0,*43
1495984069.65,38217,18.0,74642.0,14.69,-30.51,-30.33,0,*4C
1495984070.85,38218,18.0,74642.5,14.69,-30.27,-30.11,0,*42
1495984072.07,38219,18.0,74644.0,14.69,-29.95,-29.67,0,*4B
1495984073.3,38220,18.0,74644.8,14.69,-30.51,-30.33,0,*48
1495984074.57,38221,18.0,74642.8,14.67,-30.73,-30.55,0,*47
1495984075.84,38222,18.0,74644.8,14.65,-30.95,-30.77,0,*4E
1495984077.09,38223,18.0,74640.0,14.63,-30.67,-30.39,0,*4E
1495984078.34,38224,18.0,74644.5,14.61,-29.51,-29.13,0,*46
1495984079.57,38225,18.0,74642.0,14.61,-30.45,-30.05,0,*45
1495984080.82,38226,18.0,74646.5,14.63,-29.57,-29.17,0,*44
1495984082.05,38227,18.0,74640.3,14.63,-28.37,-27.89,0,*4B
1495984083.31,38228,18.0,74640.5,14.63,-28.05,-27.71,0,*42
1495984084.57,38229,18.0,74640.3,14.63,-28.53,-28.05,0,*4C
1495984085.8,38230,18.0,74636.5,14.67,-27.77,-27.29,0,*48
1495984087.08,38231,18.0,74638.3,14.67,-28.21,-27.61,0,*49
1495984088.34,38232,18.0,74638.5,14.65,-29.39,-29.01,0,*48
1495984089.61,38233,18.0,74642.3,14.67,-28.47,-27.99,0,*4C
1495984090.84,38234,18.0,74642.3,14.67,-28.15,-27.67,0,*4D
1495984092.09,38235,18.0,74640.8,14.67,-28.63,-28.31,0,*41
1495984093.35,38236,18.0,74640.8,14.69,-28.75,-28.43,0,*4E
1495984094.6,38237,18.0,74640.5,14.69,-29.13,-28.75,0,*4B
1495984095.85,38238,18.0,74642.0,14.69,-28.75,-28.47,0,*44
1495984097.11,38239,18.0,74640.8,14.67,-29.89,-29.67,0,*4A